CAPE
137 432 931 1216 1015 1155 907 309 418 881 1022 784 737 576 648 837 827 1118 1842 1512 1390 1346 1331 1407 1196 718 877 1042 1404 1509 1435 1450 1316 1361 1260 1108 1121 1442 1426 1199 1219 1016 1239
225 513 794 1306 1241 1272 1284 639 589 795 1290 1471 1184 1700 1552 1589 1679 1465 1728 1677 1409 1505 1658 1653 1381 917 1064 914 1209 1474 1399 1312 1321 1270 1345 1295 1139 1011 1440 1355 1084 1389 898
155 455 733 1130 1242 1281 1165 558 474 566 1273 1264 1289 1311 1417 1351 1407 1504 1658 1909 1717 1707 1408 1072 861 1384 1628 1390 1237 1311 1338 1208 1686 1376 1102 893 1505 1311 991 840 944 697 1418
121 301 488 998 1162 1228 1067 899 676 560 1138 1219 1477 1507 1587 1718 1685 1691 1586 1424 970 468 120 57 23 244 685 739 891 868 699 621 1157 1039 572 436 574 1111 1148 945 1262 1309 1105
135 282 980 1254 1204 1206 1185 833 761 639 1057 1346 1615 1452 1407 1495 1688 1888 1154 639 422 1010 1396 1340 987 1134 1027 893 563 728 711 607 407 697 665 35 0 154 982 1450 1364 1079 266
49 9 680 1073 1188 1180 1154 865 915 1217 1383 1722 1747 1913 1936 1828 1446 1575 979 533 899 1750 1524 1239 1426 1065 869 669 627 647 675 911 1176 1065 701 645 359 348 280 323 852 664 49
57 293 809 952 1101 1306 1323 1084 962 1031 1207 1190 1649 1985 2030 1963 1927 1168 754 546 648 1711 932 996 749 446 415 284 335 607 561 908 1191 614 820 766 804 1246 888 355 291 83 209
178 468 907 1041 1329 1237 1016 996 939 1108 1213 1588 1827 1556 1919 2126 1847 1719 1087 1235 943 1235 1101 1688 1600 1124 628 542 530 488 357 689 845 482 517 362 834 1104 760 197 173 1139 1145
385 503 790 791 1251 1116 1272 1071 1080 1321 1000 1114 1034 1074 1244 1477 1523 1639 1654 1883 1501 1002 944 1305 1334 1253 976 869 639 445 438 530 911 607 163 25 595 1105 1052 838 428 212 850
344 574 653 711 1063 1639 924 1250 1114 1388 1479 1061 1212 1185 1275 1388 1329 1537 1195 1507 1864 1572 1496 1585 1535 1096 738 868 689 698 898 541 677 587 290 24 249 1332 1398 1263 1127 965 423
418 400 484 534 1179 1060 686 986 1081 1211 1329 1418 1310 1135 1066 1216 1676 1637 1224 849 1142 1648 1610 1515 1310 1064 715 606 717 636 785 606 509 552 230 11 210 927 924 522 506 750 769
340 367 273 352 360 765 893 761 585 588 784 876 806 744 907 1028 1085 1650 1677 1435 897 1094 1383 1388 1249 1141 885 636 320 416 619 658 672 524 435 87 84 293 694 505 206 514 1162
662 663 525 369 339 357 626 806 658 314 258 143 97 502 711 993 1015 1369 1485 1403 1301 1216 1099 1021 1087 1026 881 826 848 786 613 719 740 699 775 679 230 687 1038 493 153 76 108
869 906 791 673 610 737 890 884 876 1071 676 140 115 455 661 1249 1256 1190 1165 1130 1207 1034 1047 525 4 514 979 1032 891 702 570 529 388 282 718 587 385 498 854 996 353 28 58
1001 1118 1081 1067 965 979 1074 969 915 1264 1219 892 717 615 752 1158 888 971 1053 980 1023 1095 852 426 518 693 621 839 892 610 770 462 352 401 464 750 616 617 704 860 1234 570 239
942 1088 1331 1357 1277 1367 1316 1219 939 1305 1365 1308 983 774 777 902 670 778 1215 1308 1261 1129 940 811 530 543 127 57 686 951 930 833 583 328 305 341 666 791 656 641 1109 1028 765
1139 1253 1385 1390 1315 1395 1544 1431 1590 1369 1467 1413 1346 1112 914 908 1058 956 998 895 965 992 1081 822 614 141 0 72 423 821 884 739 588 508 373 300 425 910 859 667 726 788 820
1428 1290 1443 1665 1584 1783 1644 1674 1342 1035 1242 1495 958 1266 1372 1205 1164 1096 966 1240 985 728 1050 666 557 395 315 355 707 904 305 40 0 57 487 151 160 429 681 1027 869 806 777
1479 1399 1411 1719 1794 1893 1421 1420 1372 1088 1056 1182 1016 1235 1428 1536 1380 1381 1589 1197 1031 1055 1173 977 815 606 525 440 297 454 156 86 0 14 296 554 465 283 463 582 787 626 805
1346 1528 1273 1210 1103 1220 1196 1454 1363 1328 1240 1257 1298 1529 1531 1428 1827 1793 1613 1478 1494 1431 1158 1004 776 389 291 191 202 169 295 256 229 82 230 398 616 336 228 231 444 545 671
1225 1207 1247 1359 1278 1310 1447 1369 1347 1171 1228 1578 1590 1642 1406 706 173 701 1494 1530 1379 1415 1174 1018 803 576 324 299 67 185 113 220 203 187 200 172 240 352 447 378 296 471 687
979 1137 1337 1482 1519 1505 1764 1717 1584 1463 1662 1756 1710 1632 1602 1421 1244 1129 1406 1648 1575 1384 1172 885 796 531 188 150 263 189 50 52 73 170 225 174 192 599 652 571 359 436 689
1043 1374 1654 1764 1775 1858 1996 1894 1848 1980 1994 1898 1997 1931 1652 1647 1753 1530 1623 1747 1537 1703 1397 1262 849 595 640 429 432 349 139 36 66 51 88 162 170 145 182 336 502 404 499
1033 1328 1572 1812 1915 2110 2126 2053 2058 2017 1797 1694 1918 1916 1919 2042 2014 806 1019 1402 1594 1605 1036 497 763 689 618 456 464 394 264 183 134 78 54 63 76 69 24 14 28 536 484
1151 1401 1712 1998 2183 2290 2426 2273 2132 2062 2102 1930 1930 1892 1945 1347 13 71 0 0 0 0 38 160 97 89 180 114 82 78 84 120 157 146 79 107 16 21 45 94 169 412 535
1341 1636 1887 2121 2393 2542 2618 2427 2199 2247 2582 2455 1455 743 693 53 0 0 0 0 0 14 0 0 0 44 29 8 5 4 10 12 3 4 2 0 2 0 8 40 54 123 216
CIN
-4 -1 -1 0 0 0 -1 -32 -32 -19 -25 -43 -49 -56 -50 -37 -35 -16 0 -2 -1 0 0 0 0 -15 -11 -9 0 0 0 0 0 -2 -2 -4 -1 0 0 0 0 0 0
-12 -2 -1 0 0 0 0 -18 -27 -34 -25 -19 -27 -4 -4 -3 0 0 0 0 0 0 0 0 0 -4 -2 -10 0 0 0 0 0 -3 -3 -2 -1 -2 0 0 0 0 0
-36 -2 -1 0 0 0 -6 -31 -31 -42 -17 -17 -19 -18 -10 -8 -4 -1 0 0 0 0 0 -2 -8 -1 0 0 0 -2 -4 -1 0 -5 -9 -21 0 0 -4 -5 -1 -5 0
-58 -6 -5 -2 0 -2 -12 -21 -37 -45 -21 -17 -10 -13 -5 0 0 0 0 -1 -7 -44 -94 -108 -130 -58 -20 -25 -22 -19 -25 -21 -2 -4 -23 -23 -24 -1 0 -4 0 0 0
-32 -7 -2 0 -1 -3 -6 -31 -32 -47 -19 -10 -2 -10 -11 -7 0 0 -1 -35 -59 -8 -1 -2 -15 -10 -17 -22 -31 -27 -18 -14 -19 -9 -25 -97 0 -109 -4 0 0 0 -67
-68 -124 -1 0 -2 -8 -11 -26 -18 -8 -6 -1 0 0 0 0 -2 0 -11 -49 -12 0 0 -4 -6 -20 -30 -41 -34 -24 -20 -13 -11 -21 -32 -41 -64 -58 -64 -61 -7 -28 -184
-100 -35 -2 -9 -12 0 -6 -18 -19 -18 -19 -26 -12 -1 -1 0 0 -10 -52 -67 -46 0 -17 -19 -43 -55 -53 -56 -50 -35 -22 -6 -15 -50 -46 -55 -51 -23 -29 -64 -75 -162 -132
-91 -27 0 -2 0 -9 -34 -31 -30 -24 -28 -15 -4 -10 0 0 0 -5 -43 -27 -39 -16 -24 -2 -5 -31 -50 -48 -50 -44 -38 -22 -31 -43 -62 -88 -55 -44 -55 -106 -122 0 0
-58 -50 -19 -23 -1 -17 -12 -24 -25 -18 -37 -29 -37 -33 -27 -16 -17 -17 -16 -11 -23 -48 -48 -29 -26 -35 -46 -45 -45 -48 -42 -31 -24 -39 -117 -193 -77 -42 -53 -60 -81 -116 -17
-76 -55 -59 -61 -25 -1 -49 -24 -36 -22 -20 -42 -33 -31 -28 -31 -33 -25 -39 -32 -21 -28 -30 -24 -23 -39 -53 -47 -51 -54 -46 -19 -49 -53 -73 -218 -69 -40 -32 -44 -38 -32 -81
-67 -88 -91 -105 -35 -53 -99 -62 -57 -48 -37 -33 -32 -41 -48 -43 -30 -24 -41 -51 -38 -31 -35 -36 -41 -47 -62 -65 -67 -71 -58 -44 -67 -62 -70 -197 -91 -64 -60 -102 -98 -62 -49
-118 -118 -159 -155 -170 -110 -94 -117 -137 -136 -109 -93 -93 -98 -77 -69 -63 -34 -28 -35 -61 -48 -36 -28 -40 -53 -56 -73 -77 -70 -71 -53 -46 -45 -63 -114 -117 -107 -80 -97 -152 -99 -31
-98 -111 -147 -177 -195 -193 -145 -122 -128 -177 -187 -213 -228 -120 -95 -76 -80 -50 -42 -44 -48 -43 -54 -44 -43 -46 -58 -60 -54 -58 -60 -58 -48 -40 -39 -63 -80 -72 -73 -101 -154 -199 -201
-94 -97 -125 -149 -162 -150 -115 -118 -102 -93 -133 -194 -184 -107 -94 -48 -33 -41 -42 -37 -57 -64 -52 -96 -20 -85 -64 -60 -57 -45 -48 -50 -63 -60 -46 -48 -45 -44 -21 -76 -121 -224 -217
-98 -90 -102 -108 -128 -131 -100 -109 -111 -81 -82 -90 -103 -100 -79 -55 -50 -55 -46 -45 -45 -57 -57 -92 -74 -60 -62 -42 -41 -53 -33 -49 -48 -50 -47 -26 -29 -28 -26 -27 -59 -98 -144
-107 -107 -94 -85 -89 -78 -75 -74 -97 -71 -71 -67 -81 -72 -61 -59 -49 -52 -38 -31 -35 -45 -48 -45 -54 -63 -96 -172 -42 -38 -41 -37 -49 -58 -51 -48 -25 -24 -24 -26 -25 -45 -81
-95 -108 -99 -84 -81 -67 -41 -39 -38 -61 -53 -41 -49 -59 -62 -39 -50 -48 -48 -38 -25 -49 -44 -55 -68 -171 -7 -116 -53 -44 -65 -91 -103 -97 -81 -57 -42 -30 -28 -32 -24 -22 -41
-82 -107 -83 -50 -54 -32 -35 -19 -34 -56 -33 -34 -49 -35 -48 -53 -46 -50 -51 -37 -29 -41 -44 -55 -59 -63 -75 -75 -52 -40 -110 -215 0 -152 -103 -124 -110 -52 -37 -33 -34 -28 -28
-93 -89 -91 -63 -40 -28 -45 -33 -30 -36 -35 -30 -45 -29 -31 -43 -43 -54 -37 -35 -45 -42 -25 -30 -37 -47 -40 -43 -73 -66 -147 -157 -1 -135 -124 -104 -90 -87 -72 -49 -24 -20 -26
-116 -96 -89 -91 -79 -57 -64 -53 -46 -52 -42 -35 -29 -38 -40 -35 -34 -40 -40 -29 -34 -24 -26 -35 -51 -101 -75 -101 -93 -120 -83 -106 -127 -156 -144 -116 -74 -83 -93 -91 -62 -36 -24
-145 -132 -110 -90 -78 -62 -60 -63 -68 -73 -48 -40 -43 -40 -40 -72 -141 -76 -42 -40 -37 -25 -31 -44 -58 -53 -68 -86 -131 -85 -145 -139 -160 -167 -153 -144 -132 -103 -83 -76 -93 -63 -35
-187 -166 -145 -117 -93 -68 -48 -49 -55 -65 -49 -43 -48 -52 -56 -59 -61 -59 -41 -28 -25 -23 -27 -30 -37 -51 -93 -93 -37 -37 -143 -156 -165 -150 -134 -122 -120 -97 -94 -70 -97 -84 -57
-199 -166 -132 -120 -100 -66 -54 -37 -37 -38 -35 -37 -36 -50 -57 -50 -36 -53 -40 -27 -22 -27 -16 -16 -23 -35 -20 -49 -39 -10 -60 -183 -96 -128 -109 -117 -98 -123 -113 -105 -110 -116 -107
-224 -195 -150 -124 -110 -68 -46 -30 -36 -42 -49 -52 -42 -45 -35 -28 -30 -112 -83 -55 -38 -27 -27 -41 -16 -13 -13 -7 -10 -15 -14 -47 -99 -254 -177 -183 -152 -132 -181 -180 -131 -76 -114
-241 -220 -179 -135 -93 -73 -49 -46 -51 -52 -44 -50 -53 -45 -33 -51 -58 -235 0 0 0 0 -299 -166 -167 -114 -55 -88 -86 -92 -57 -25 -32 -94 -278 -203 -197 -182 -108 -89 -66 -45 -85
-247 -206 -184 -166 -131 -90 -65 -64 -66 -51 -29 -36 -84 -113 -109 -100 0 0 0 0 0 -184 0 0 0 -269 -260 -148 -15 -16 -10 -4 -2 -2 0 0 0 0 -107 -174 -134 -91 -88
Wind_Speed
27 25 13 13 16 17 19 20 21 21 21 20 20 21 19 18 19 16 11 8 9 14 18 18 19 19 21 22 23 24 26 26 26 25 24 25 26 26 26 25 24 24 24
32 30 24 16 16 18 19 19 19 20 19 19 19 17 17 17 15 12 12 14 17 20 20 18 19 20 21 22 24 24 26 26 26 25 24 25 25 24 24 25 24 25 24
30 31 12 22 19 16 20 17 18 15 17 17 19 18 17 16 17 16 16 18 19 19 20 19 19 18 19 21 24 25 25 26 26 25 24 24 24 25 24 24 25 25 25
30 31 16 20 21 20 21 18 17 13 15 16 17 17 17 17 16 15 14 16 18 19 19 20 20 19 18 20 24 25 25 24 24 24 24 23 22 22 23 24 24 25 24
31 26 26 26 20 19 20 20 13 10 10 16 17 17 17 18 16 15 15 18 19 19 19 19 18 18 16 17 22 23 22 20 19 20 20 21 21 21 22 23 23 23 23
31 30 30 28 8 30 24 19 14 11 12 14 16 16 18 18 17 13 10 19 18 17 18 18 17 16 15 13 12 17 17 16 17 19 19 19 19 20 21 21 21 22 23
31 30 29 30 26 29 25 18 13 12 14 16 17 19 19 18 19 22 15 16 16 16 16 16 16 14 10 12 12 13 13 12 12 17 19 18 18 19 20 20 20 21 21
30 30 30 30 30 30 30 25 19 18 16 17 18 17 22 23 22 23 21 19 17 16 16 15 15 15 13 15 15 16 15 15 14 15 17 17 17 18 18 19 19 19 19
30 31 31 30 29 29 29 26 20 18 19 18 18 20 22 22 21 21 20 19 19 18 15 14 14 14 14 17 18 18 17 17 15 13 14 14 16 16 16 16 17 18 17
30 30 30 30 30 29 28 26 23 20 18 19 19 20 20 20 20 20 19 18 17 16 15 14 14 14 17 19 19 21 20 19 19 11 11 12 14 14 14 15 15 16 16
30 30 30 30 29 28 28 27 25 23 22 21 20 20 18 17 17 17 16 16 16 14 13 13 12 13 17 21 22 22 22 22 19 8 12 10 12 12 12 13 13 13 14
30 29 29 29 29 28 27 26 25 24 22 21 19 17 16 15 13 13 12 12 12 13 12 12 13 15 18 20 22 25 25 23 23 23 4 11 11 11 11 11 10 11 12
29 29 29 29 28 27 25 24 23 22 21 20 18 16 14 13 12 11 10 10 10 9 8 10 13 22 22 22 23 24 23 20 24 26 7 11 10 10 9 10 10 8 11
29 28 29 28 28 27 25 23 22 21 20 19 18 16 14 13 13 11 9 9 8 8 7 7 8 7 22 25 20 24 26 24 22 25 19 2 4 8 9 9 9 7 8
29 28 29 28 28 27 26 23 22 21 20 19 18 16 15 14 12 11 9 8 7 6 6 5 6 5 7 19 16 20 26 24 24 25 23 9 2 2 7 8 11 8 7
28 28 28 27 26 25 23 22 21 20 19 18 16 15 14 12 10 9 7 7 6 5 4 2 3 4 4 8 2 7 25 26 26 26 27 22 6 6 6 11 10 9 8
27 26 26 25 24 23 22 20 19 19 19 16 15 15 14 11 11 7 6 4 3 5 3 2 1 4 6 4 1 16 24 25 29 31 30 29 20 6 11 15 11 11 9
25 24 24 23 22 21 21 21 18 18 17 16 14 12 12 12 11 7 5 4 4 3 5 2 1 1 4 4 2 9 21 27 32 34 32 30 27 28 10 12 13 12 14
23 22 22 21 21 19 19 19 18 17 16 15 12 10 10 9 9 6 4 2 3 4 7 6 4 7 4 4 7 5 4 6 31 30 31 26 31 31 31 24 12 12 12
21 21 20 20 20 19 17 17 16 15 16 13 12 11 10 9 8 5 2 3 6 9 8 6 6 9 9 6 6 5 7 7 4 14 33 30 27 38 38 35 29 19 12
21 21 20 19 19 18 17 17 16 16 15 14 12 11 10 9 9 8 9 8 11 12 13 14 16 14 13 15 13 13 8 6 8 8 20 21 16 25 40 37 26 24 25
19 19 19 19 19 18 16 16 15 15 14 13 11 10 9 8 7 8 8 8 9 12 14 15 16 17 16 15 16 16 17 16 7 3 3 7 33 28 31 36 33 27 23
20 20 19 18 18 18 16 15 15 14 13 12 11 10 9 8 7 9 10 11 13 16 16 17 17 16 18 18 14 17 21 17 21 15 12 13 13 18 30 30 34 34 30
21 20 19 18 17 16 17 16 16 15 13 11 10 8 6 7 11 18 20 22 22 21 21 21 21 20 19 21 20 15 15 18 24 28 21 26 19 16 9 11 21 31 29
20 19 17 17 17 17 17 17 16 14 12 9 9 10 8 13 18 22 25 26 27 26 26 25 24 23 22 23 23 23 22 21 21 25 35 28 27 27 29 27 17 28 26
18 18 17 16 17 17 16 16 15 12 9 5 7 11 13 15 18 22 25 26 27 27 27 26 26 25 25 24 24 24 25 27 29 29 33 34 32 30 26 27 25 24 20
Wind_Direction
158 162 74 72 73 73 74 74 70 66 65 62 60 60 58 58 59 53 40 29 27 45 58 57 57 56 62 68 74 79 86 89 90 82 77 80 87 95 87 85 82 86 81
141 149 91 76 77 76 76 73 66 63 59 58 57 52 51 53 48 39 35 40 50 63 63 54 54 59 64 66 79 78 91 93 89 81 77 80 82 104 94 87 93 95 90
117 121 78 86 81 76 79 73 67 58 54 52 54 52 50 46 50 48 45 48 54 58 60 58 59 51 57 66 82 85 89 96 99 85 79 87 93 87 94 102 108 110 106
116 129 83 86 86 82 84 75 68 54 50 50 50 48 47 45 42 40 29 41 50 55 53 61 65 64 57 68 85 96 95 103 115 91 88 97 96 91 97 106 113 110 112
117 102 99 98 87 85 84 80 64 47 39 51 50 47 45 47 38 34 29 45 54 51 50 51 51 59 48 58 85 98 120 131 138 143 123 101 98 95 101 106 109 115 114
120 118 116 106 172 112 94 79 64 46 44 48 49 42 45 43 40 20 4 46 49 45 50 50 43 47 47 31 7 160 153 156 159 148 133 110 106 100 103 111 121 121 120
121 120 118 116 102 112 98 79 61 51 54 55 54 52 48 44 49 61 32 32 38 33 38 37 36 28 308 281 315 279 250 276 278 85 108 106 106 111 110 111 115 119 119
119 127 123 121 119 150 122 99 81 72 62 58 53 44 61 72 67 73 56 47 43 45 40 26 24 18 279 256 278 269 267 282 312 80 112 103 103 106 108 116 121 122 125
124 130 131 131 126 125 124 113 88 78 76 65 57 59 69 71 65 63 63 64 65 70 44 17 13 0 325 244 283 263 258 290 286 99 104 112 116 111 111 111 123 126 123
127 134 134 135 135 132 135 124 104 88 78 79 72 79 79 74 61 61 66 60 61 61 54 45 29 2 322 296 288 264 262 283 304 92 107 110 126 124 118 118 122 130 129
128 132 137 139 137 138 142 142 131 117 119 109 105 114 112 76 67 79 75 66 64 76 69 53 33 16 321 295 286 268 267 272 309 82 146 134 138 134 128 128 124 132 134
130 135 136 139 141 142 148 150 150 150 148 143 131 128 128 124 126 117 118 107 92 84 71 50 17 347 328 312 305 281 287 291 281 300 55 155 148 144 142 132 123 130 141
133 136 141 141 144 144 146 146 150 155 156 159 152 144 134 143 145 138 135 114 120 114 101 63 15 311 298 304 301 302 304 317 299 292 341 161 155 154 142 147 140 131 148
136 139 141 143 145 148 148 144 146 149 158 165 166 155 144 141 126 122 134 145 138 130 129 88 85 126 312 304 321 306 304 306 310 302 322 122 158 175 174 161 159 141 147
136 138 142 145 146 147 148 145 147 151 152 159 164 165 155 151 144 129 132 146 152 127 122 110 76 91 34 326 336 328 310 313 305 301 303 323 230 255 191 187 183 170 162
139 140 142 146 148 148 150 152 156 163 163 165 170 171 168 158 141 131 121 136 137 128 141 136 47 117 122 187 62 351 314 314 310 301 294 304 299 281 212 202 198 193 187
147 142 145 146 148 150 152 153 166 169 171 172 176 182 181 171 173 150 126 122 124 74 68 79 110 184 213 191 174 347 320 317 306 296 294 293 305 270 212 209 209 205 200
145 146 144 147 147 144 152 158 140 144 149 143 138 145 168 175 166 151 134 105 89 88 59 102 89 135 221 226 234 355 333 317 307 289 291 293 294 292 263 223 221 218 210
146 144 145 145 146 143 149 158 160 167 171 166 141 105 104 121 153 154 119 96 54 43 31 22 16 19 5 3 357 347 314 318 323 293 293 306 291 288 290 295 237 236 232
143 145 144 145 148 145 143 146 155 162 169 167 169 140 101 95 96 123 121 44 35 25 15 7 0 0 356 335 308 310 277 273 278 248 293 301 300 280 278 285 291 290 258
141 143 144 143 143 138 134 135 145 152 146 154 152 141 129 98 84 74 56 48 31 21 16 11 6 2 355 356 354 346 342 287 266 273 315 304 304 297 275 282 293 294 290
143 145 140 142 142 140 135 136 130 134 137 134 135 144 130 115 93 64 49 34 24 18 14 11 9 3 2 2 355 352 349 346 327 273 285 321 292 305 292 286 289 288 289
151 150 147 142 143 145 141 136 136 127 135 116 127 116 117 94 71 43 26 18 11 8 6 5 4 1 355 353 352 347 343 342 338 336 329 325 321 309 304 300 290 284 283
160 157 155 153 150 149 148 148 149 147 145 136 123 101 95 69 33 16 15 11 8 8 6 4 1 356 352 346 346 341 333 332 331 326 327 321 319 245 298 279 295 292 287
161 161 158 157 159 158 157 158 157 152 141 121 60 44 50 28 16 10 9 7 4 2 0 359 357 354 351 345 342 339 337 333 330 324 316 319 318 314 306 307 301 296 289
165 165 163 161 164 165 164 165 166 163 151 103 46 31 25 17 11 8 5 4 4 3 358 355 353 351 349 346 343 339 335 330 326 323 317 315 313 311 309 306 301 298 295